{"data":{"norad_id":61584,"intl_designator":"2024-187L","name":"STARLINK-11370 [DTC]","alt_names":[],"object_type":"PAYLOAD","status":"ACTIVE","operator":null,"country":"US","launch_date":"2024-10-18","launch_site_code":"AFETR","launch_vehicle":null,"mission":null,"orbit_class":"UNKNOWN","rcs_meters":null,"size_class":null,"mass_kg":null,"dimensions":null,"purposes":["comms"],"wikipedia_slug":null,"has_3d_model":false,"image_url":null,"decayed_at":null,"tle_current":{"epoch":"2026-05-24T19:29:56.558688Z","epoch_age_seconds":94546,"freshness":"FRESH","line1":"1 61584U 24187L   26144.81246017 -.00000655  00000+0 -55373-6 0  9998","line2":"2 61584  53.1589 281.1838 0000717  64.1012 296.0079 15.69720519 92703","mean_motion":15.69720519,"eccentricity":7.17e-5,"inclination_deg":53.1589,"raan_deg":281.1838,"arg_perigee_deg":64.1012,"mean_anomaly_deg":296.0079,"bstar":-5.5373e-7,"rev_number":9270,"period_min":91.736075471407,"perigee_km":359.21354656369,"apogee_km":360.17975190899,"semimajor_km":6737.8336492363,"source":"CELESTRAK","updated_at":"2026-05-25T13:38:19.403893Z"}}}